This is the latest recevied weather packets stored in our database for station/object KR8N. If no packets are shown the sender has not sent any weather packets the latest 10 day(s).
| Time | Temp. | Humidity | Pressure | Rain* | Wind** | Luminosity | Snow |
|---|---|---|---|---|---|---|---|
| 1777363872 | 10.56° C | 88% | 1018.6 hPa | 6.1 mm | - | 0 W/m² | - |
| 1777363569 | 10.56° C | 87% | 1018.4 hPa | 4.32 mm | - | 0 W/m² | - |
| 1777363265 | 10.56° C | 88% | 1019.4 hPa | 7.87 mm | - | 0 W/m² | - |
| 1777362962 | 10.56° C | 87% | 1019.6 hPa | 8.89 mm | - | 0 W/m² | - |
| 1777362660 | 10.56° C | 88% | 1020 hPa | 3.05 mm | - | 0 W/m² | - |
| 1777362358 | 10.56° C | 87% | 1019.2 hPa | 1.78 mm | - | 0 W/m² | - |
| 1777362054 | 10.56° C | 87% | 1019.5 hPa | 3.05 mm | - | 0 W/m² | - |
| 1777361752 | 10.56° C | 87% | 1018.8 hPa | 4.32 mm | - | 0 W/m² | - |
| 1777361448 | 10.56° C | 87% | 1018.7 hPa | 6.1 mm | - | 0 W/m² | - |
| 1777361146 | 10.56° C | 86% | 1018.9 hPa | 7.87 mm | - | 0 W/m² | - |
| 1777360844 | 10.56° C | 85% | 1019.2 hPa | 6.1 mm | - | 0 W/m² | - |
| 1777360541 | 10.56° C | 86% | 1021.1 hPa | 3.05 mm | - | 0 W/m² | - |
| 1777360238 | 10.56° C | 85% | 1021.3 hPa | 1.27 mm | - | 0 W/m² | - |
| 1777359934 | 10.56° C | 84% | 1021.1 hPa | 0 mm | - | 0 W/m² | - |
| 1777359632 | 10.56° C | 84% | 1020.5 hPa | 0 mm | - | 0 W/m² | - |
| 1777359328 | 10.56° C | 82% | 1020 hPa | 3.05 mm | - | 0 W/m² | - |
| 1777359026 | 10.56° C | 84% | 1019.9 hPa | 7.87 mm | - | 0 W/m² | - |
| 1777358723 | 10.56° C | 84% | 1020.7 hPa | 8.89 mm | - | 0 W/m² | - |
| 1777358420 | 10.56° C | 84% | 1021.8 hPa | 6.1 mm | - | 0 W/m² | - |
| 1777358118 | 11.11° C | 84% | 1022.5 hPa | 4.32 mm | - | 0 W/m² | - |
| 1777357816 | 11.11° C | 82% | 1022.2 hPa | 3.05 mm | - | 0 W/m² | - |
| 1777357513 | 11.11° C | 80% | 1022 hPa | 3.56 mm | - | 0 W/m² | - |
| 1777357209 | 11.67° C | 80% | 1022.4 hPa | 4.83 mm | - | 0 W/m² | - |
| 1777356906 | 11.67° C | 77% | 1022.9 hPa | 4.32 mm | - | 0 W/m² | - |
| 1777356603 | 12.22° C | 78% | 1023.4 hPa | 4.32 mm | - | 0 W/m² | - |
* Rain latest hour (hover to see other rain measurements)
** Current wind speed in m/s (hover to see current wind gust speed)